Time,TemperatureF,DewpointF,PressureIn,WindDirection,WindDirectionDegrees,WindSpeedMPH,WindSpeedGustMPH,Humidity,HourlyPrecipIn,Conditions,Clouds,dailyrainin,SoftwareType,DateUTC
2013-03-24 00:00:00,46.4,30.2,30.06,ESE,113,1.3,2.9,53,0.00,,,0.00,WUHU216HW,2013-03-24 07:00:00,
2013-03-24 00:05:00,46.4,30.6,30.06,ESE,113,0.9,1.8,54,0.00,,,0.00,WUHU216HW,2013-03-24 07:05:00,
2013-03-24 00:10:00,46.1,30.2,30.06,ESE,113,1.3,1.8,54,0.00,,,0.00,WUHU216HW,2013-03-24 07:10:00,
2013-03-24 00:15:00,46.1,29.8,30.06,SE,135,0.9,2.0,53,0.00,,,0.00,WUHU216HW,2013-03-24 07:15:00,
2013-03-24 00:20:00,46.1,29.8,30.06,ESE,113,2.0,2.2,53,0.00,,,0.00,WUHU216HW,2013-03-24 07:20:00,
2013-03-24 00:25:00,45.7,29.5,30.06,SSE,158,0.2,2.2,53,0.00,,,0.00,WUHU216HW,2013-03-24 07:25:00,
2013-03-24 00:30:00,45.7,29.5,30.06,SE,135,0.7,1.8,53,0.00,,,0.00,WUHU216HW,2013-03-24 07:30:00,
2013-03-24 00:35:00,45.5,29.3,30.06,ESE,113,0.4,1.6,53,0.00,,,0.00,WUHU216HW,2013-03-24 07:35:00,
2013-03-24 00:40:00,45.4,29.2,30.06,SE,135,1.3,1.3,53,0.00,,,0.00,WUHU216HW,2013-03-24 07:40:00,
2013-03-24 00:45:00,45.2,29.0,30.06,SE,135,0.9,2.0,53,0.00,,,0.00,WUHU216HW,2013-03-24 07:45:00,
2013-03-24 00:50:00,45.0,28.9,30.06,ESE,113,1.6,2.7,53,0.00,,,0.00,WUHU216HW,2013-03-24 07:50:00,
2013-03-24 00:55:00,45.0,29.4,30.06,ESE,113,1.1,2.7,54,0.00,,,0.00,WUHU216HW,2013-03-24 07:55:00,
2013-03-24 01:00:00,44.8,29.2,30.06,ESE,113,0.9,1.8,54,0.00,,,0.00,WUHU216HW,2013-03-24 08:00:00,
2013-03-24 01:05:00,44.6,28.5,30.06,ESE,113,0.0,1.8,53,0.00,,,0.00,WUHU216HW,2013-03-24 08:05:00,
2013-03-24 01:10:00,44.6,28.5,30.06,East,90,0.7,1.8,53,0.00,,,0.00,WUHU216HW,2013-03-24 08:10:00,
2013-03-24 01:15:00,44.5,28.4,30.06,SE,135,0.7,1.8,53,0.00,,,0.00,WUHU216HW,2013-03-24 08:15:00,
2013-03-24 01:20:00,44.5,28.4,30.06,ESE,113,0.4,1.8,53,0.00,,,0.00,WUHU216HW,2013-03-24 08:20:00,
2013-03-24 01:25:00,44.3,28.2,30.06,SSE,158,0.2,1.1,53,0.00,,,0.00,WUHU216HW,2013-03-24 08:25:00,
2013-03-24 01:30:00,44.3,28.2,30.06,SE,135,1.1,1.1,53,0.00,,,0.00,WUHU216HW,2013-03-24 08:30:00,
2013-03-24 01:35:00,44.3,28.2,30.06,SSE,158,0.7,1.1,53,0.00,,,0.00,WUHU216HW,2013-03-24 08:35:00,
2013-03-24 01:40:00,44.3,28.2,30.06,SE,135,0.0,1.1,53,0.00,,,0.00,WUHU216HW,2013-03-24 08:40:00,
2013-03-24 01:45:00,44.1,28.0,30.06,ESE,113,0.4,0.9,53,0.00,,,0.00,WUHU216HW,2013-03-24 08:45:00,
2013-03-24 01:50:00,44.1,28.0,30.06,East,90,0.0,0.4,53,0.00,,,0.00,WUHU216HW,2013-03-24 08:50:00,
2013-03-24 01:55:00,44.1,28.4,30.06,West,270,1.1,1.1,54,0.00,,,0.00,WUHU216HW,2013-03-24 08:55:00,
2013-03-24 02:00:00,44.1,28.4,30.06,WSW,248,1.1,1.3,54,0.00,,,0.00,WUHU216HW,2013-03-24 09:00:00,
2013-03-24 02:05:00,43.9,28.3,30.06,SSE,158,1.1,1.8,54,0.00,,,0.00,WUHU216HW,2013-03-24 09:05:00,
2013-03-24 02:10:00,43.9,28.3,30.05,SSE,158,0.0,1.8,54,0.00,,,0.00,WUHU216HW,2013-03-24 09:10:00,
2013-03-24 02:15:00,43.7,28.2,30.05,SSE,158,0.9,0.9,54,0.00,,,0.00,WUHU216HW,2013-03-24 09:15:00,
2013-03-24 02:20:00,43.6,28.5,30.05,SW,225,0.4,1.1,55,0.00,,,0.00,WUHU216HW,2013-03-24 09:20:00,
2013-03-24 02:25:00,43.4,28.3,30.05,SW,225,0.0,1.1,55,0.00,,,0.00,WUHU216HW,2013-03-24 09:25:00,
2013-03-24 02:30:00,43.2,28.1,30.04,SSW,203,0.0,1.1,55,0.00,,,0.00,WUHU216HW,2013-03-24 09:30:00,
2013-03-24 02:35:00,43.2,28.5,30.04,SSW,203,0.0,0.4,56,0.00,,,0.00,WUHU216HW,2013-03-24 09:35:00,
2013-03-24 02:40:00,42.8,28.2,30.05,SSW,203,0.7,0.7,56,0.00,,,0.00,WUHU216HW,2013-03-24 09:40:00,
2013-03-24 02:45:00,42.8,28.2,30.04,East,90,1.3,1.3,56,0.00,,,0.00,WUHU216HW,2013-03-24 09:45:00,
2013-03-24 02:50:00,42.5,28.3,30.04,ESE,113,1.3,1.6,57,0.00,,,0.00,WUHU216HW,2013-03-24 09:50:00,
2013-03-24 02:55:00,42.3,28.1,30.04,ESE,113,0.0,1.6,57,0.00,,,0.00,WUHU216HW,2013-03-24 09:55:00,
2013-03-24 03:00:00,42.1,27.9,30.04,East,90,0.9,0.9,57,0.00,,,0.00,WUHU216HW,2013-03-24 10:00:00,
2013-03-24 03:05:00,41.9,27.7,30.05,East,90,0.9,0.9,57,0.00,,,0.00,WUHU216HW,2013-03-24 10:05:00,
2013-03-24 03:10:00,41.8,28.0,30.05,ESE,113,0.7,0.9,58,0.00,,,0.00,WUHU216HW,2013-03-24 10:10:00,
2013-03-24 03:15:00,41.6,27.9,30.05,ESE,113,0.0,0.9,58,0.00,,,0.00,WUHU216HW,2013-03-24 10:15:00,
2013-03-24 03:20:00,41.4,27.7,30.06,ESE,113,0.0,0.7,58,0.00,,,0.00,WUHU216HW,2013-03-24 10:20:00,
2013-03-24 03:25:00,41.4,27.7,30.05,ESE,113,0.4,0.7,58,0.00,,,0.00,WUHU216HW,2013-03-24 10:25:00,
2013-03-24 03:30:00,41.4,28.2,30.05,East,90,0.9,1.1,59,0.00,,,0.00,WUHU216HW,2013-03-24 10:30:00,
2013-03-24 03:35:00,41.2,28.0,30.05,ENE,68,1.3,1.3,59,0.00,,,0.00,WUHU216HW,2013-03-24 10:35:00,
2013-03-24 03:40:00,41.2,28.0,30.05,NNE,23,0.0,1.3,59,0.00,,,0.00,WUHU216HW,2013-03-24 10:40:00,
2013-03-24 03:45:00,41.0,28.3,30.05,SW,225,0.0,0.7,60,0.00,,,0.00,WUHU216HW,2013-03-24 10:45:00,
2013-03-24 03:50:00,41.0,28.6,30.05,SSW,203,0.0,0.7,61,0.00,,,0.00,WUHU216HW,2013-03-24 10:50:00,
2013-03-24 03:55:00,40.9,28.4,30.05,SSE,158,0.0,0.0,61,0.00,,,0.00,WUHU216HW,2013-03-24 10:55:00,
2013-03-24 04:00:00,40.7,28.3,30.05,SSE,158,0.0,0.0,61,0.00,,,0.00,WUHU216HW,2013-03-24 11:00:00,
2013-03-24 04:05:00,40.5,28.4,30.05,ENE,68,1.1,1.1,62,0.00,,,0.00,WUHU216HW,2013-03-24 11:05:00,
2013-03-24 04:10:00,40.5,28.9,30.05,ESE,113,0.9,1.1,63,0.00,,,0.00,WUHU216HW,2013-03-24 11:10:00,
2013-03-24 04:15:00,40.3,28.3,30.05,ESE,113,1.8,1.8,62,0.00,,,0.00,WUHU216HW,2013-03-24 11:15:00,
2013-03-24 04:20:00,40.1,28.1,30.05,ESE,113,2.0,2.0,62,0.00,,,0.00,WUHU216HW,2013-03-24 11:20:00,
2013-03-24 04:25:00,40.0,27.9,30.04,ESE,113,1.1,2.5,62,0.00,,,0.00,WUHU216HW,2013-03-24 11:25:00,
2013-03-24 04:30:00,40.0,28.4,30.04,SE,135,0.7,2.5,63,0.00,,,0.00,WUHU216HW,2013-03-24 11:30:00,
2013-03-24 04:35:00,39.8,28.2,30.04,ENE,68,1.3,1.3,63,0.00,,,0.00,WUHU216HW,2013-03-24 11:35:00,
2013-03-24 04:40:00,39.8,28.2,30.04,East,90,0.7,1.8,63,0.00,,,0.00,WUHU216HW,2013-03-24 11:40:00,
2013-03-24 04:45:00,39.8,28.2,30.04,NE,45,1.1,1.8,63,0.00,,,0.00,WUHU216HW,2013-03-24 11:45:00,
2013-03-24 04:50:00,39.8,28.2,30.04,ENE,68,1.1,1.8,63,0.00,,,0.00,WUHU216HW,2013-03-24 11:50:00,
2013-03-24 04:55:00,39.8,28.2,30.04,WSW,248,0.4,1.8,63,0.00,,,0.00,WUHU216HW,2013-03-24 11:55:00,
2013-03-24 05:00:00,39.8,28.2,30.04,ESE,113,1.1,1.8,63,0.00,,,0.00,WUHU216HW,2013-03-24 12:00:00,
2013-03-24 05:05:00,39.6,28.0,30.04,ENE,68,1.1,1.6,63,0.00,,,0.00,WUHU216HW,2013-03-24 12:05:00,
2013-03-24 05:10:00,39.6,28.4,30.04,NNE,23,1.6,1.6,64,0.00,,,0.00,WUHU216HW,2013-03-24 12:10:00,
2013-03-24 05:15:00,39.6,28.4,30.04,NE,45,1.1,1.6,64,0.00,,,0.00,WUHU216HW,2013-03-24 12:15:00,
2013-03-24 05:20:00,39.6,28.4,30.05,North,0,0.7,1.8,64,0.00,,,0.00,WUHU216HW,2013-03-24 12:20:00,
2013-03-24 05:25:00,39.4,28.9,30.05,North,0,1.6,2.5,66,0.00,,,0.00,WUHU216HW,2013-03-24 12:25:00,
2013-03-24 05:30:00,39.4,28.5,30.05,SSW,203,1.1,2.5,65,0.00,,,0.00,WUHU216HW,2013-03-24 12:30:00,
2013-03-24 05:35:00,39.2,28.4,30.05,SSW,203,1.1,1.3,65,0.00,,,0.00,WUHU216HW,2013-03-24 12:35:00,
2013-03-24 05:40:00,39.2,28.0,30.05,SSE,158,0.7,1.6,64,0.00,,,0.00,WUHU216HW,2013-03-24 12:40:00,
2013-03-24 05:45:00,39.1,28.2,30.05,SSE,158,0.4,1.8,65,0.00,,,0.00,WUHU216HW,2013-03-24 12:45:00,
2013-03-24 05:50:00,38.9,28.0,30.04,SE,135,0.4,1.8,65,0.00,,,0.00,WUHU216HW,2013-03-24 12:50:00,
2013-03-24 05:55:00,38.7,27.9,30.04,SE,135,0.9,1.1,65,0.00,,,0.00,WUHU216HW,2013-03-24 12:55:00,
2013-03-24 06:00:00,38.5,27.7,30.04,ESE,113,0.7,0.9,65,0.00,,,0.00,WUHU216HW,2013-03-24 13:00:00,
2013-03-24 06:05:00,38.5,27.7,30.04,ENE,68,0.9,1.1,65,0.00,,,0.00,WUHU216HW,2013-03-24 13:05:00,
2013-03-24 06:10:00,38.3,27.9,30.04,East,90,0.9,1.1,66,0.00,,,0.00,WUHU216HW,2013-03-24 13:10:00,
2013-03-24 06:15:00,38.3,27.9,30.04,ENE,68,0.0,1.1,66,0.00,,,0.00,WUHU216HW,2013-03-24 13:15:00,
2013-03-24 06:20:00,38.2,27.7,30.05,WNW,293,0.4,1.1,66,0.00,,,0.00,WUHU216HW,2013-03-24 13:20:00,
2013-03-24 06:25:00,38.2,27.7,30.04,West,270,0.2,1.1,66,0.00,,,0.00,WUHU216HW,2013-03-24 13:25:00,
2013-03-24 06:30:00,38.2,28.2,30.04,West,270,0.0,1.1,67,0.00,,,0.00,WUHU216HW,2013-03-24 13:30:00,
2013-03-24 06:35:00,38.0,28.0,30.04,East,90,1.8,1.8,67,0.00,,,0.00,WUHU216HW,2013-03-24 13:35:00,
2013-03-24 06:40:00,37.8,27.8,30.05,ENE,68,0.9,1.8,67,0.00,,,0.00,WUHU216HW,2013-03-24 13:40:00,
2013-03-24 06:45:00,37.8,27.8,30.05,East,90,1.8,1.8,67,0.00,,,0.00,WUHU216HW,2013-03-24 13:45:00,
2013-03-24 06:50:00,37.6,27.6,30.05,ESE,113,0.9,1.8,67,0.00,,,0.00,WUHU216HW,2013-03-24 13:50:00,
2013-03-24 06:55:00,37.4,27.5,30.05,SE,135,0.0,1.8,67,0.00,,,0.00,WUHU216HW,2013-03-24 13:55:00,
2013-03-24 07:00:00,37.3,27.3,30.06,ESE,113,1.8,1.8,67,0.00,,,0.00,WUHU216HW,2013-03-24 14:00:00,
2013-03-24 07:05:00,37.3,27.3,30.06,ENE,68,0.9,1.8,67,0.00,,,0.00,WUHU216HW,2013-03-24 14:05:00,
2013-03-24 07:10:00,37.1,27.2,30.06,SE,135,0.4,1.8,67,0.00,,,0.00,WUHU216HW,2013-03-24 14:10:00,
2013-03-24 07:15:00,37.1,27.6,30.06,ESE,113,2.0,2.0,68,0.00,,,0.00,WUHU216HW,2013-03-24 14:15:00,
2013-03-24 07:20:00,36.9,27.4,30.06,ESE,113,1.8,2.0,68,0.00,,,0.00,WUHU216HW,2013-03-24 14:20:00,
2013-03-24 07:25:00,36.9,27.4,30.06,SE,135,1.3,2.0,68,0.00,,,0.00,WUHU216HW,2013-03-24 14:25:00,
2013-03-24 07:30:00,36.9,27.4,30.06,SE,135,0.4,2.0,68,0.00,,,0.00,WUHU216HW,2013-03-24 14:30:00,
2013-03-24 07:35:00,37.1,27.6,30.06,SE,135,0.0,1.6,68,0.00,,,0.00,WUHU216HW,2013-03-24 14:35:00,
2013-03-24 07:40:00,37.4,27.9,30.06,SE,135,0.7,1.3,68,0.00,,,0.00,WUHU216HW,2013-03-24 14:40:00,
2013-03-24 07:45:00,38.0,28.7,30.07,ESE,113,1.1,1.3,69,0.00,,,0.00,WUHU216HW,2013-03-24 14:45:00,
2013-03-24 07:50:00,38.9,29.9,30.06,ESE,113,1.3,1.3,70,0.00,,,0.00,WUHU216HW,2013-03-24 14:50:00,
2013-03-24 07:55:00,39.6,30.6,30.06,SE,135,1.8,2.0,70,0.00,,,0.00,WUHU216HW,2013-03-24 14:55:00,
2013-03-24 08:00:00,40.5,31.9,30.07,East,90,0.9,2.0,71,0.00,,,0.00,WUHU216HW,2013-03-24 15:00:00,
2013-03-24 08:05:00,41.4,32.8,30.07,ENE,68,1.3,1.3,71,0.00,,,0.00,WUHU216HW,2013-03-24 15:05:00,
2013-03-24 08:10:00,42.3,33.7,30.07,ENE,68,0.7,1.3,71,0.00,,,0.00,WUHU216HW,2013-03-24 15:10:00,
2013-03-24 08:15:00,43.0,33.6,30.06,ENE,68,0.0,1.1,69,0.00,,,0.00,WUHU216HW,2013-03-24 15:15:00,
2013-03-24 08:20:00,43.7,34.3,30.06,ENE,68,0.9,1.1,69,0.00,,,0.00,WUHU216HW,2013-03-24 15:20:00,
2013-03-24 08:25:00,44.5,34.6,30.06,North,0,1.1,1.1,68,0.00,,,0.00,WUHU216HW,2013-03-24 15:25:00,
2013-03-24 08:30:00,45.0,34.7,30.06,NE,45,1.3,1.3,67,0.00,,,0.00,WUHU216HW,2013-03-24 15:30:00,
2013-03-24 08:35:00,45.7,35.0,30.06,North,0,1.6,1.6,66,0.00,,,0.00,WUHU216HW,2013-03-24 15:35:00,
2013-03-24 08:40:00,46.3,34.8,30.07,North,0,1.1,2.0,64,0.00,,,0.00,WUHU216HW,2013-03-24 15:40:00,
2013-03-24 08:45:00,47.0,35.4,30.07,NNW,338,0.9,2.0,64,0.00,,,0.00,WUHU216HW,2013-03-24 15:45:00,
2013-03-24 08:50:00,47.5,35.6,30.07,NNW,338,1.3,1.8,63,0.00,,,0.00,WUHU216HW,2013-03-24 15:50:00,
2013-03-24 08:55:00,48.1,35.6,30.07,North,0,2.7,2.7,62,0.00,,,0.00,WUHU216HW,2013-03-24 15:55:00,
2013-03-24 09:00:00,48.6,35.8,30.07,NNE,23,2.9,3.4,61,0.00,,,0.00,WUHU216HW,2013-03-24 16:00:00,
2013-03-24 09:05:00,49.0,35.3,30.07,NNE,23,2.7,3.4,59,0.00,,,0.00,WUHU216HW,2013-03-24 16:05:00,
2013-03-24 09:10:00,49.3,36.5,30.07,NW,315,1.1,3.4,61,0.00,,,0.00,WUHU216HW,2013-03-24 16:10:00,
2013-03-24 09:15:00,49.9,36.1,30.07,NNE,23,1.1,2.0,59,0.00,,,0.00,WUHU216HW,2013-03-24 16:15:00,
2013-03-24 09:20:00,50.4,36.2,30.07,ENE,68,0.9,2.0,58,0.00,,,0.00,WUHU216HW,2013-03-24 16:20:00,
2013-03-24 09:25:00,50.8,36.5,30.07,West,270,1.1,1.6,58,0.00,,,0.00,WUHU216HW,2013-03-24 16:25:00,
2013-03-24 09:30:00,51.3,37.0,30.07,WSW,248,2.5,2.5,58,0.00,,,0.00,WUHU216HW,2013-03-24 16:30:00,
2013-03-24 09:35:00,51.7,36.8,30.07,WSW,248,1.6,2.5,57,0.00,,,0.00,WUHU216HW,2013-03-24 16:35:00,
2013-03-24 09:40:00,52.2,37.4,30.07,West,270,2.2,2.2,57,0.00,,,0.00,WUHU216HW,2013-03-24 16:40:00,
2013-03-24 09:45:00,52.6,37.7,30.07,West,270,0.9,2.7,57,0.00,,,0.00,WUHU216HW,2013-03-24 16:45:00,
2013-03-24 09:50:00,53.1,37.7,30.07,West,270,2.2,2.7,56,0.00,,,0.00,WUHU216HW,2013-03-24 16:50:00,
2013-03-24 09:55:00,53.5,38.1,30.07,WSW,248,1.8,2.5,56,0.00,,,0.00,WUHU216HW,2013-03-24 16:55:00,
2013-03-24 10:00:00,54.0,38.2,30.07,WSW,248,2.0,3.6,55,0.00,,,0.00,WUHU216HW,2013-03-24 17:00:00,
2013-03-24 10:05:00,54.4,38.4,30.07,NW,315,1.8,4.0,55,0.00,,,0.00,WUHU216HW,2013-03-24 17:05:00,
2013-03-24 10:10:00,54.9,38.4,30.07,NW,315,1.1,4.0,54,0.00,,,0.00,WUHU216HW,2013-03-24 17:10:00,
2013-03-24 10:15:00,55.4,38.5,30.07,WNW,293,3.1,3.4,53,0.00,,,0.00,WUHU216HW,2013-03-24 17:15:00,
2013-03-24 10:20:00,55.8,38.9,30.07,WNW,293,2.7,3.8,53,0.00,,,0.00,WUHU216HW,2013-03-24 17:20:00,
2013-03-24 10:25:00,56.2,38.7,30.06,NW,315,0.4,3.8,52,0.00,,,0.00,WUHU216HW,2013-03-24 17:25:00,
2013-03-24 10:30:00,56.5,39.6,30.06,WNW,293,3.4,3.4,53,0.00,,,0.00,WUHU216HW,2013-03-24 17:30:00,
2013-03-24 10:35:00,57.1,39.6,30.06,WSW,248,2.9,3.4,52,0.00,,,0.00,WUHU216HW,2013-03-24 17:35:00,
2013-03-24 10:40:00,57.6,40.1,30.07,NNW,338,1.3,4.7,52,0.00,,,0.00,WUHU216HW,2013-03-24 17:40:00,
2013-03-24 10:45:00,58.0,40.0,30.07,WNW,293,2.0,4.7,51,0.00,,,0.00,WUHU216HW,2013-03-24 17:45:00,
2013-03-24 10:50:00,58.3,40.3,30.06,WNW,293,2.2,3.6,51,0.00,,,0.00,WUHU216HW,2013-03-24 17:50:00,
2013-03-24 10:55:00,58.9,40.3,30.06,WNW,293,2.5,2.5,50,0.00,,,0.00,WUHU216HW,2013-03-24 17:55:00,
2013-03-24 11:00:00,59.2,40.7,30.06,WNW,293,1.8,2.5,50,0.00,,,0.00,WUHU216HW,2013-03-24 18:00:00,
2013-03-24 11:05:00,59.6,40.4,30.06,West,270,3.4,3.4,49,0.00,,,0.00,WUHU216HW,2013-03-24 18:05:00,
2013-03-24 11:10:00,59.9,40.1,30.05,WSW,248,1.8,3.4,48,0.00,,,0.00,WUHU216HW,2013-03-24 18:10:00,
2013-03-24 11:15:00,60.3,40.5,30.07,WSW,248,3.1,3.1,48,0.00,,,0.00,WUHU216HW,2013-03-24 18:15:00,
2013-03-24 11:20:00,60.7,40.8,30.06,NW,315,3.6,3.6,48,0.00,,,0.00,WUHU216HW,2013-03-24 18:20:00,
2013-03-24 11:25:00,61.0,39.4,30.06,NNE,23,1.3,3.6,45,0.00,,,0.00,WUHU216HW,2013-03-24 18:25:00,
2013-03-24 11:31:00,61.4,40.3,30.06,North,0,1.1,3.1,46,0.00,,,0.00,WUHU216HW,2013-03-24 18:31:00,
2013-03-24 11:36:00,61.9,40.8,30.06,West,270,4.0,4.0,46,0.00,,,0.00,WUHU216HW,2013-03-24 18:36:00,
2013-03-24 11:41:00,62.3,41.1,30.06,South,180,2.7,4.0,46,0.00,,,0.00,WUHU216HW,2013-03-24 18:41:00,
2013-03-24 11:46:00,62.6,39.7,30.06,WSW,248,4.0,4.0,43,0.00,,,0.00,WUHU216HW,2013-03-24 18:46:00,
2013-03-24 11:51:00,62.8,41.1,30.05,West,270,3.8,4.0,45,0.00,,,0.00,WUHU216HW,2013-03-24 18:51:00,
2013-03-24 11:57:00,63.2,40.8,30.05,WNW,293,3.4,4.7,44,0.00,,,0.00,WUHU216HW,2013-03-24 18:57:00,
2013-03-24 12:02:00,63.4,39.3,30.05,West,270,0.4,4.7,41,0.00,,,0.00,WUHU216HW,2013-03-24 19:02:00,
2013-03-24 12:07:00,63.7,40.7,30.05,NNW,338,1.3,4.0,43,0.00,,,0.00,WUHU216HW,2013-03-24 19:07:00,
2013-03-24 12:12:00,64.1,41.1,30.04,SSW,203,3.4,4.0,43,0.00,,,0.00,WUHU216HW,2013-03-24 19:12:00,
2013-03-24 12:17:00,64.4,41.3,30.05,SSE,158,1.8,4.7,43,0.00,,,0.00,WUHU216HW,2013-03-24 19:17:00,
2013-03-24 12:22:00,64.8,40.0,30.04,ENE,68,2.7,4.7,40,0.00,,,0.00,WUHU216HW,2013-03-24 19:22:00,
2013-03-24 12:27:00,65.2,40.2,30.04,NW,315,0.9,2.7,40,0.00,,,0.00,WUHU216HW,2013-03-24 19:27:00,
2013-03-24 12:32:00,65.5,39.9,30.04,SW,225,2.7,3.4,39,0.00,,,0.00,WUHU216HW,2013-03-24 19:32:00,
2013-03-24 12:37:00,65.7,40.1,30.04,NNE,23,1.8,3.4,39,0.00,,,0.00,WUHU216HW,2013-03-24 19:37:00,
2013-03-24 12:42:00,66.1,39.6,30.04,WNW,293,3.4,3.4,38,0.00,,,0.00,WUHU216HW,2013-03-24 19:42:00,
2013-03-24 12:47:00,66.2,40.5,30.03,NNW,338,2.5,4.3,39,0.00,,,0.00,WUHU216HW,2013-03-24 19:47:00,
2013-03-24 12:53:00,66.6,40.9,30.03,West,270,1.8,4.3,39,0.00,,,0.00,WUHU216HW,2013-03-24 19:53:00,
2013-03-24 12:58:00,66.8,40.2,30.03,SSW,203,1.1,3.1,38,0.00,,,0.00,WUHU216HW,2013-03-24 19:58:00,
2013-03-24 13:03:00,67.0,39.0,30.03,NE,45,3.1,4.5,36,0.00,,,0.00,WUHU216HW,2013-03-24 20:03:00,
2013-03-24 13:08:00,67.1,39.9,30.03,North,0,3.8,4.5,37,0.00,,,0.00,WUHU216HW,2013-03-24 20:08:00,
2013-03-24 13:13:00,67.5,38.7,30.03,North,0,2.2,3.8,35,0.00,,,0.00,WUHU216HW,2013-03-24 20:13:00,
2013-03-24 13:18:00,67.7,38.9,30.03,North,0,3.1,5.1,35,0.00,,,0.00,WUHU216HW,2013-03-24 20:18:00,
2013-03-24 13:23:00,68.0,39.2,30.03,NNW,338,1.1,5.1,35,0.00,,,0.00,WUHU216HW,2013-03-24 20:23:00,
2013-03-24 13:28:00,68.0,41.4,30.03,West,270,1.3,4.7,38,0.00,,,0.00,WUHU216HW,2013-03-24 20:28:00,
2013-03-24 13:33:00,68.2,41.5,30.02,SW,225,4.3,4.7,38,0.00,,,0.00,WUHU216HW,2013-03-24 20:33:00,
2013-03-24 13:38:00,68.4,38.7,30.02,NNE,23,4.9,4.9,34,0.00,,,0.00,WUHU216HW,2013-03-24 20:38:00,
2013-03-24 13:43:00,68.6,41.1,30.02,WSW,248,5.4,5.8,37,0.00,,,0.00,WUHU216HW,2013-03-24 20:43:00,
2013-03-24 13:48:00,68.9,42.2,30.02,SSW,203,3.8,5.8,38,0.00,,,0.00,WUHU216HW,2013-03-24 20:48:00,
2013-03-24 13:53:00,69.1,42.3,30.02,SSW,203,3.4,5.4,38,0.00,,,0.00,WUHU216HW,2013-03-24 20:53:00,
2013-03-24 13:58:00,69.3,40.3,30.02,NNW,338,2.9,3.8,35,0.00,,,0.00,WUHU216HW,2013-03-24 20:58:00,
2013-03-24 14:03:00,69.5,40.4,30.01,ENE,68,1.8,3.8,35,0.00,,,0.00,WUHU216HW,2013-03-24 21:03:00,
2013-03-24 14:08:00,69.7,42.1,30.01,NNW,338,2.9,3.4,37,0.00,,,0.00,WUHU216HW,2013-03-24 21:08:00,
2013-03-24 14:13:00,69.8,43.0,30.01,WSW,248,2.5,6.7,38,0.00,,,0.00,WUHU216HW,2013-03-24 21:13:00,
2013-03-24 14:18:00,69.8,43.0,30.01,WNW,293,1.1,6.7,38,0.00,,,0.00,WUHU216HW,2013-03-24 21:18:00,
2013-03-24 14:23:00,70.2,43.3,30.01,North,0,2.2,2.5,38,0.00,,,0.00,WUHU216HW,2013-03-24 21:23:00,
2013-03-24 14:27:00,70.2,43.3,30.01,West,270,3.8,3.8,38,0.00,,,0.00,WUHU216HW,2013-03-24 21:27:00,
2013-03-24 14:33:00,70.2,44.0,30.00,West,270,1.6,5.4,39,0.00,,,0.00,WUHU216HW,2013-03-24 21:33:00,
2013-03-24 14:38:00,70.2,44.0,30.00,WSW,248,2.9,5.4,39,0.00,,,0.00,WUHU216HW,2013-03-24 21:38:00,
2013-03-24 14:43:00,70.2,44.0,30.00,WNW,293,2.5,3.4,39,0.00,,,0.00,WUHU216HW,2013-03-24 21:43:00,
2013-03-24 14:48:00,70.4,44.2,30.00,WSW,248,6.3,6.3,39,0.00,,,0.00,WUHU216HW,2013-03-24 21:48:00,
2013-03-24 14:53:00,70.7,44.6,29.99,WSW,248,7.6,7.6,39,0.00,,,0.00,WUHU216HW,2013-03-24 21:53:00,
2013-03-24 14:58:00,70.9,42.5,29.99,North,0,2.5,7.6,36,0.00,,,0.00,WUHU216HW,2013-03-24 21:58:00,
2013-03-24 15:03:00,70.9,43.9,29.99,WSW,248,2.5,6.3,38,0.00,,,0.00,WUHU216HW,2013-03-24 22:03:00,
2013-03-24 15:08:00,71.1,44.1,29.99,WSW,248,0.4,6.9,38,0.00,,,0.00,WUHU216HW,2013-03-24 22:08:00,
2013-03-24 15:13:00,71.3,45.0,29.98,WSW,248,1.1,6.9,39,0.00,,,0.00,WUHU216HW,2013-03-24 22:13:00,
2013-03-24 15:18:00,71.6,45.4,29.98,SW,225,2.2,3.4,39,0.00,,,0.00,WUHU216HW,2013-03-24 22:18:00,
2013-03-24 15:23:00,71.6,45.4,29.98,ESE,113,0.7,3.4,39,0.00,,,0.00,WUHU216HW,2013-03-24 22:23:00,
2013-03-24 15:28:00,72.0,47.0,29.97,SSW,203,2.0,3.8,41,0.00,,,0.00,WUHU216HW,2013-03-24 22:28:00,
2013-03-24 15:33:00,72.4,47.4,29.97,SW,225,4.3,6.7,41,0.00,,,0.00,WUHU216HW,2013-03-24 22:33:00,
2013-03-24 15:38:00,72.4,46.7,29.97,NW,315,2.7,6.7,40,0.00,,,0.00,WUHU216HW,2013-03-24 22:38:00,
2013-03-24 15:43:00,72.2,47.2,29.97,SW,225,2.5,4.3,41,0.00,,,0.00,WUHU216HW,2013-03-24 22:43:00,
2013-03-24 15:48:00,72.4,47.4,29.97,WSW,248,4.7,4.7,41,0.00,,,0.00,WUHU216HW,2013-03-24 22:48:00,
2013-03-24 15:53:00,72.4,47.4,29.97,SSW,203,3.8,4.7,41,0.00,,,0.00,WUHU216HW,2013-03-24 22:53:00,
2013-03-24 15:58:00,72.4,47.4,29.97,SW,225,1.8,4.7,41,0.00,,,0.00,WUHU216HW,2013-03-24 22:58:00,
2013-03-24 16:03:00,72.7,48.2,29.97,SSW,203,3.6,5.8,42,0.00,,,0.00,WUHU216HW,2013-03-24 23:03:00,
2013-03-24 16:08:00,72.7,47.6,29.97,SSW,203,4.7,5.8,41,0.00,,,0.00,WUHU216HW,2013-03-24 23:08:00,
2013-03-24 16:13:00,73.1,48.0,29.96,SW,225,4.7,4.7,41,0.00,,,0.00,WUHU216HW,2013-03-24 23:13:00,
2013-03-24 16:18:00,73.1,48.0,29.96,SSW,203,7.2,7.2,41,0.00,,,0.00,WUHU216HW,2013-03-24 23:18:00,
2013-03-24 16:23:00,73.1,48.0,29.96,WSW,248,4.9,7.6,41,0.00,,,0.00,WUHU216HW,2013-03-24 23:23:00,
2013-03-24 16:28:00,72.9,47.8,29.96,SW,225,6.7,7.6,41,0.00,,,0.00,WUHU216HW,2013-03-24 23:28:00,
2013-03-24 16:33:00,72.9,47.8,29.96,WSW,248,5.1,6.7,41,0.00,,,0.00,WUHU216HW,2013-03-24 23:33:00,
2013-03-24 16:38:00,72.9,48.4,29.96,SSW,203,5.4,7.6,42,0.00,,,0.00,WUHU216HW,2013-03-24 23:38:00,
2013-03-24 16:43:00,72.9,47.8,29.95,SW,225,5.8,7.6,41,0.00,,,0.00,WUHU216HW,2013-03-24 23:43:00,
2013-03-24 16:48:00,72.7,47.6,29.95,SW,225,6.5,6.9,41,0.00,,,0.00,WUHU216HW,2013-03-24 23:48:00,
2013-03-24 16:53:00,72.7,47.6,29.95,NW,315,4.0,8.5,41,0.00,,,0.00,WUHU216HW,2013-03-24 23:53:00,
2013-03-24 16:58:00,72.7,48.2,29.95,SW,225,6.5,8.5,42,0.00,,,0.00,WUHU216HW,2013-03-24 23:58:00,
2013-03-24 17:03:00,72.5,48.1,29.94,SW,225,7.4,7.6,42,0.00,,,0.00,WUHU216HW,2013-03-25 00:03:00,
2013-03-24 17:08:00,72.5,47.5,29.94,SW,225,5.8,7.4,41,0.00,,,0.00,WUHU216HW,2013-03-25 00:08:00,
2013-03-24 17:13:00,72.4,47.4,29.94,South,180,3.6,7.4,41,0.00,,,0.00,WUHU216HW,2013-03-25 00:13:00,
2013-03-24 17:18:00,72.4,47.4,29.94,West,270,5.4,8.1,41,0.00,,,0.00,WUHU216HW,2013-03-25 00:18:00,
2013-03-24 17:23:00,72.0,47.6,29.94,SSW,203,6.3,8.1,42,0.00,,,0.00,WUHU216HW,2013-03-25 00:23:00,
2013-03-24 17:28:00,71.6,47.3,29.95,WSW,248,6.9,9.8,42,0.00,,,0.00,WUHU216HW,2013-03-25 00:28:00,
2013-03-24 17:33:00,71.3,47.0,29.94,SSE,158,5.4,9.8,42,0.00,,,0.00,WUHU216HW,2013-03-25 00:33:00,
2013-03-24 17:38:00,70.9,47.3,29.95,WSW,248,6.7,6.9,43,0.00,,,0.00,WUHU216HW,2013-03-25 00:38:00,
2013-03-24 17:43:00,70.6,46.9,29.94,SW,225,5.1,8.7,43,0.00,,,0.00,WUHU216HW,2013-03-25 00:43:00,
2013-03-24 17:48:00,70.6,46.9,29.94,SW,225,3.1,8.7,43,0.00,,,0.00,WUHU216HW,2013-03-25 00:48:00,
2013-03-24 17:53:00,69.7,46.7,29.95,West,270,3.8,6.7,44,0.00,,,0.00,WUHU216HW,2013-03-25 00:53:00,
2013-03-24 17:58:00,69.3,47.0,29.95,SW,225,4.7,6.7,45,0.00,,,0.00,WUHU216HW,2013-03-25 00:58:00,
2013-03-24 18:03:00,69.1,46.8,29.94,SW,225,5.8,8.3,45,0.00,,,0.00,WUHU216HW,2013-03-25 01:03:00,
2013-03-24 18:08:00,68.8,46.4,29.94,SW,225,2.0,8.3,45,0.00,,,0.00,WUHU216HW,2013-03-25 01:08:00,
2013-03-24 18:13:00,68.4,45.5,29.94,WSW,248,4.0,5.8,44,0.00,,,0.00,WUHU216HW,2013-03-25 01:13:00,
2013-03-24 18:18:00,68.0,45.8,29.94,SW,225,4.0,6.7,45,0.00,,,0.00,WUHU216HW,2013-03-25 01:18:00,
2013-03-24 18:23:00,67.9,45.6,29.95,SW,225,4.0,6.7,45,0.00,,,0.00,WUHU216HW,2013-03-25 01:23:00,
2013-03-24 18:28:00,67.3,45.7,29.95,West,270,4.9,6.3,46,0.00,,,0.00,WUHU216HW,2013-03-25 01:28:00,
2013-03-24 18:33:00,67.0,44.8,29.95,WSW,248,8.5,8.5,45,0.00,,,0.00,WUHU216HW,2013-03-25 01:33:00,
2013-03-24 18:38:00,66.6,44.6,29.94,West,270,5.4,8.5,45,0.00,,,0.00,WUHU216HW,2013-03-25 01:38:00,
2013-03-24 18:43:00,66.1,44.0,29.94,SW,225,3.6,6.7,45,0.00,,,0.00,WUHU216HW,2013-03-25 01:43:00,
2013-03-24 18:48:00,65.7,43.7,29.94,WSW,248,7.8,7.8,45,0.00,,,0.00,WUHU216HW,2013-03-25 01:48:00,
2013-03-24 18:53:00,65.2,43.2,29.95,SW,225,2.9,7.8,45,0.00,,,0.00,WUHU216HW,2013-03-25 01:53:00,
2013-03-24 18:58:00,64.4,42.5,29.94,West,270,3.4,6.9,45,0.00,,,0.00,WUHU216HW,2013-03-25 01:58:00,
2013-03-24 19:03:00,64.1,42.8,29.95,SW,225,3.8,4.9,46,0.00,,,0.00,WUHU216HW,2013-03-25 02:03:00,
2013-03-24 19:08:00,63.7,42.4,29.95,SW,225,6.7,6.7,46,0.00,,,0.00,WUHU216HW,2013-03-25 02:08:00,
2013-03-24 19:13:00,63.4,42.1,29.95,SW,225,3.4,6.7,46,0.00,,,0.00,WUHU216HW,2013-03-25 02:13:00,
2013-03-24 19:18:00,63.0,41.8,29.95,SW,225,1.6,5.6,46,0.00,,,0.00,WUHU216HW,2013-03-25 02:18:00,
2013-03-24 19:23:00,62.6,41.4,29.95,SW,225,1.8,3.4,46,0.00,,,0.00,WUHU216HW,2013-03-25 02:23:00,
2013-03-24 19:28:00,62.3,41.7,29.95,WSW,248,2.7,5.4,47,0.00,,,0.00,WUHU216HW,2013-03-25 02:28:00,
2013-03-24 19:33:00,61.7,41.2,29.95,WSW,248,2.0,5.4,47,0.00,,,0.00,WUHU216HW,2013-03-25 02:33:00,
2013-03-24 19:38:00,61.6,41.6,29.95,SW,225,0.4,3.4,48,0.00,,,0.00,WUHU216HW,2013-03-25 02:38:00,
2013-03-24 19:43:00,61.0,41.1,29.96,SSW,203,1.3,3.4,48,0.00,,,0.00,WUHU216HW,2013-03-25 02:43:00,
2013-03-24 19:48:00,60.8,41.0,29.95,SSW,203,1.8,2.5,48,0.00,,,0.00,WUHU216HW,2013-03-25 02:48:00,
2013-03-24 19:53:00,60.1,40.9,29.95,SW,225,1.6,1.8,49,0.00,,,0.00,WUHU216HW,2013-03-25 02:53:00,
2013-03-24 19:58:00,59.8,40.6,29.96,SSW,203,1.8,1.8,49,0.00,,,0.00,WUHU216HW,2013-03-25 02:58:00,
2013-03-24 20:03:00,59.2,40.7,29.96,SSW,203,1.1,1.8,50,0.00,,,0.00,WUHU216HW,2013-03-25 03:03:00,
2013-03-24 20:08:00,58.9,40.3,29.96,WSW,248,1.6,2.9,50,0.00,,,0.00,WUHU216HW,2013-03-25 03:08:00,
2013-03-24 20:13:00,58.5,40.5,29.96,WSW,248,3.4,4.3,51,0.00,,,0.00,WUHU216HW,2013-03-25 03:13:00,
2013-03-24 20:18:00,58.3,40.8,29.96,West,270,1.1,4.3,52,0.00,,,0.00,WUHU216HW,2013-03-25 03:18:00,
2013-03-24 20:23:00,58.1,40.6,29.96,SW,225,1.8,3.4,52,0.00,,,0.00,WUHU216HW,2013-03-25 03:23:00,
2013-03-24 20:28:00,57.8,40.8,29.97,WSW,248,1.1,2.5,53,0.00,,,0.00,WUHU216HW,2013-03-25 03:28:00,
2013-03-24 20:33:00,57.6,40.6,29.97,SSW,203,1.8,1.8,53,0.00,,,0.00,WUHU216HW,2013-03-25 03:33:00,
2013-03-24 20:38:00,57.2,40.3,29.97,SSW,203,2.2,2.2,53,0.00,,,0.00,WUHU216HW,2013-03-25 03:38:00,
2013-03-24 20:43:00,56.9,40.0,29.97,SSW,203,1.3,2.2,53,0.00,,,0.00,WUHU216HW,2013-03-25 03:43:00,
2013-03-24 20:48:00,56.5,40.1,29.97,SW,225,1.1,2.0,54,0.00,,,0.00,WUHU216HW,2013-03-25 03:48:00,
2013-03-24 20:53:00,56.2,39.3,29.97,SW,225,1.1,2.0,53,0.00,,,0.00,WUHU216HW,2013-03-25 03:53:00,
2013-03-24 20:58:00,55.8,39.3,29.97,SW,225,1.1,1.8,54,0.00,,,0.00,WUHU216HW,2013-03-25 03:58:00,
2013-03-24 21:00:00,55.6,39.2,29.97,SW,225,1.3,1.8,54,0.00,,,0.00,WUHU216HW,2013-03-25 04:00:00,
2013-03-24 21:05:00,55.3,38.8,29.97,SW,225,0.9,1.6,54,0.00,,,0.00,WUHU216HW,2013-03-25 04:05:00,
2013-03-24 21:10:00,54.9,38.4,29.97,SW,225,1.3,1.3,54,0.00,,,0.00,WUHU216HW,2013-03-25 04:10:00,
2013-03-24 21:15:00,54.5,38.6,29.97,WSW,248,2.2,2.7,55,0.00,,,0.00,WUHU216HW,2013-03-25 04:15:00,
2013-03-24 21:20:00,54.2,38.8,29.97,WSW,248,1.3,2.7,56,0.00,,,0.00,WUHU216HW,2013-03-25 04:20:00,
2013-03-24 21:25:00,53.8,38.9,29.97,SSW,203,4.0,4.0,57,0.00,,,0.00,WUHU216HW,2013-03-25 04:25:00,
2013-03-24 21:30:00,53.5,39.1,29.97,WSW,248,0.9,4.0,58,0.00,,,0.00,WUHU216HW,2013-03-25 04:30:00,
2013-03-24 21:35:00,53.3,39.3,29.98,SSE,158,1.8,3.4,59,0.00,,,0.00,WUHU216HW,2013-03-25 04:35:00,
2013-03-24 21:40:00,52.9,39.0,29.98,SW,225,1.3,3.4,59,0.00,,,0.00,WUHU216HW,2013-03-25 04:40:00,
2013-03-24 21:45:00,52.7,39.2,29.98,SE,135,1.6,3.4,60,0.00,,,0.00,WUHU216HW,2013-03-25 04:45:00,
2013-03-24 21:50:00,52.4,38.9,29.98,SE,135,1.1,2.5,60,0.00,,,0.00,WUHU216HW,2013-03-25 04:50:00,
2013-03-24 21:55:00,52.0,38.5,29.98,SE,135,1.1,1.8,60,0.00,,,0.00,WUHU216HW,2013-03-25 04:55:00,
2013-03-24 22:00:00,51.7,38.2,29.98,SSE,158,1.1,1.3,60,0.00,,,0.00,WUHU216HW,2013-03-25 05:00:00,
2013-03-24 22:05:00,51.5,38.4,29.98,ESE,113,1.1,1.1,61,0.00,,,0.00,WUHU216HW,2013-03-25 05:05:00,
2013-03-24 22:10:00,51.1,38.1,29.98,ESE,113,1.8,1.8,61,0.00,,,0.00,WUHU216HW,2013-03-25 05:10:00,
2013-03-24 22:15:00,50.9,38.3,29.98,SE,135,0.9,1.8,62,0.00,,,0.00,WUHU216HW,2013-03-25 05:15:00,
2013-03-24 22:20:00,50.6,38.0,29.98,South,180,0.9,1.8,62,0.00,,,0.00,WUHU216HW,2013-03-25 05:20:00,
2013-03-24 22:25:00,50.4,37.8,29.98,South,180,1.6,1.6,62,0.00,,,0.00,WUHU216HW,2013-03-25 05:25:00,
2013-03-24 22:30:00,50.2,37.7,29.99,South,180,0.4,2.0,62,0.00,,,0.00,WUHU216HW,2013-03-25 05:30:00,
2013-03-24 22:35:00,50.2,37.7,29.98,SW,225,0.4,2.0,62,0.00,,,0.00,WUHU216HW,2013-03-25 05:35:00,
2013-03-24 22:40:00,50.0,37.9,29.98,SW,225,0.0,1.3,63,0.00,,,0.00,WUHU216HW,2013-03-25 05:40:00,
2013-03-24 22:45:00,49.7,37.5,29.99,SW,225,0.0,0.0,63,0.00,,,0.00,WUHU216HW,2013-03-25 05:45:00,
2013-03-24 22:50:00,49.7,37.5,29.99,SSE,158,0.0,0.4,63,0.00,,,0.00,WUHU216HW,2013-03-25 05:50:00,
2013-03-24 22:55:00,49.3,37.3,29.99,SSE,158,0.0,0.4,63,0.00,,,0.00,WUHU216HW,2013-03-25 05:55:00,
2013-03-24 23:00:00,49.1,37.4,29.99,SSE,158,0.0,0.2,64,0.00,,,0.00,WUHU216HW,2013-03-25 06:00:00,
2013-03-24 23:05:00,49.0,37.3,29.99,SSE,158,0.0,0.2,64,0.00,,,0.00,WUHU216HW,2013-03-25 06:05:00,
2013-03-24 23:10:00,48.6,36.5,29.99,West,270,1.1,1.1,63,0.00,,,0.00,WUHU216HW,2013-03-25 06:10:00,
2013-03-24 23:15:00,48.4,36.4,29.99,SW,225,0.9,1.1,63,0.00,,,0.00,WUHU216HW,2013-03-25 06:15:00,
2013-03-24 23:20:00,48.2,36.3,29.99,West,270,0.4,1.8,63,0.00,,,0.00,WUHU216HW,2013-03-25 06:20:00,
2013-03-24 23:25:00,48.1,36.5,29.99,WSW,248,2.5,2.5,64,0.00,,,0.00,WUHU216HW,2013-03-25 06:25:00,
2013-03-24 23:30:00,48.1,36.8,29.99,SW,225,2.2,2.9,65,0.00,,,0.00,WUHU216HW,2013-03-25 06:30:00,
2013-03-24 23:35:00,48.1,37.6,29.99,SW,225,3.4,5.4,67,0.00,,,0.00,WUHU216HW,2013-03-25 06:35:00,
2013-03-24 23:40:00,48.2,38.2,29.99,SW,225,3.6,5.4,68,0.00,,,0.00,WUHU216HW,2013-03-25 06:40:00,
2013-03-24 23:45:00,48.2,38.2,29.99,South,180,1.8,4.7,68,0.00,,,0.00,WUHU216HW,2013-03-25 06:45:00,
2013-03-24 23:50:00,48.2,39.3,29.99,WSW,248,4.5,4.5,71,0.00,,,0.00,WUHU216HW,2013-03-25 06:50:00,
2013-03-24 23:55:00,48.2,38.9,29.99,SW,225,4.7,5.4,70,0.00,,,0.00,WUHU216HW,2013-03-25 06:55:00,